Find Starlink 5287

NORAD ID: 55293 Int'l Des: 2023-010 Owner: SPXS Country: US Constellation: starlink operational
LEOCIRCULAR

实时位置

正在加载3D地球...

关于 Starlink 5287

正在加载描述...

即将过境

Passes for default location (London). Set your location on the main map for personalized predictions.

高度历史

Loading altitude history...

两行轨道根数

1 55293U 23010AA 26133.50002315 -.00008280 00000-0 -68686-3 0 9998
2 55293 70.0014 221.0275 0003513 270.8208 228.2035 14.98333007 5809
Epoch: May 13, 2026 • Age: 10 hours

当前状态

高度 576.9 km
速度 7.57 km/s
星下点 31.62°N, 169.21°W
发射日期 Jan 19, 2023
运行时间 3.3 years
类型 internet

技术详情

分类 Payload
质量 305.00 kg
干质量 290.00 kg
总质量 305.00 kg
长度 0.20 m
直径 2.80 m
跨度 9.00 m
形状 Box + pan
制造商 SPXS
平台类型 Starlink
阶段状态 In Orbit
所有者/国家 SPXS/US

Most Searched